Weather History for Rayong, Thailand

Change the Weather History Date:

Wednesday, May 1, 2013

  Actual Average Record
Temperature  
Mean Temperature 88 °F -  
Max Temperature 95 °F 90 °F 95 °F (1998)
Min Temperature 82 °F 79 °F 77 °F (2007)
Cooling Degree Days 24    
Growing Degree Days 38 (Base 50)    
Moisture  
Dew Point 77 °F    
Average Humidity 70    
Maximum Humidity 79    
Minimum Humidity 53    
Precipitation  
Precipitation 0.00 in - - ()
Sea Level Pressure  
Sea Level Pressure 29.73 in    
Wind  
Wind Speed 6 mph ()    
Max Wind Speed 12 mph    
Max Gust Speed -    
Visibility 6.2 miles    
Events Thunderstorm    
Averages and records for this station are not official NWS values.
T = Trace of Precipitation, MM = Missing Value Source: Averaged Metar Reports

Daily Weather History Graph

Daily Weather History Graph

Search for Another Location

Airport:

Trip Planner

Search our weather history database for the weather conditions in past years. The results will help you decide how hot, cold, wet, or windy it might be!

Date:

Astronomy

May. 01, 2013 Rise Set
Actual Time 5:55 AM ICT 6:30 PM ICT
Civil Twilight 5:33 AM ICT 6:52 PM ICT
Nautical Twilight 5:07 AM ICT 7:18 PM ICT
Astronomical Twilight 4:41 AM ICT 7:44 PM ICT
Moon No Moon Rise 11:02 AM ICT (5/1)
Length of Visible Light 13h 19m
Length of Day
12h 34m
Waning Gibbous, 64% of the Moon is Illuminated
May 1
Waning Gibbous
May 2
Last Quarter
May 10
New
May 18
First Quarter
May 25
Full

Hourly Weather History & Observations

Time (ICT) Temp. Heat Index Dew Point Humidity Pressure Visibility Wind Dir Wind Speed Gust Speed Precip Events Conditions
12:00 AM 86.0 °F 96.9 °F 77.0 °F 74% 29.77 in 6.2 mi SW 6.9 mph - N/A   Scattered Clouds
1:00 AM 86.0 °F 96.9 °F 77.0 °F 74% 29.74 in 6.2 mi SW 6.9 mph - N/A   Scattered Clouds
1:30 AM 84.2 °F 94.1 °F 77.0 °F 79% 29.74 in 6.2 mi WSW 6.9 mph - N/A   Scattered Clouds
2:00 AM 84.2 °F 94.1 °F 77.0 °F 79% 29.74 in 6.2 mi SW 4.6 mph - N/A   Scattered Clouds
2:30 AM 84.2 °F 94.1 °F 77.0 °F 79% 29.74 in 6.2 mi SW 6.9 mph - N/A   Scattered Clouds
3:00 AM 86.0 °F 96.9 °F 77.0 °F 74% 29.71 in 6.2 mi SW 4.6 mph - N/A   Scattered Clouds
3:30 AM 84.2 °F 94.1 °F 77.0 °F 79% 29.71 in 6.2 mi SW 6.9 mph - N/A   Scattered Clouds
4:00 AM 86.0 °F 96.9 °F 77.0 °F 74% 29.71 in 6.2 mi SW 4.6 mph - N/A   Scattered Clouds
4:30 AM 84.2 °F 94.1 °F 77.0 °F 79% 29.71 in 6.2 mi SW 6.9 mph - N/A   Scattered Clouds
5:00 AM 84.2 °F 92.3 °F 75.2 °F 74% 29.71 in 6.2 mi SW 4.6 mph - N/A   Scattered Clouds
5:30 AM 84.2 °F 94.1 °F 77.0 °F 79% 29.74 in 6.2 mi Calm Calm - N/A   Scattered Clouds
6:00 AM 82.4 °F 89.5 °F 75.2 °F 79% 29.74 in 6.2 mi Calm Calm - N/A   Mostly Cloudy
6:30 AM 82.4 °F 89.5 °F 75.2 °F 79% 29.74 in 6.2 mi Calm Calm - N/A   Mostly Cloudy
7:00 AM 86.0 °F 95.1 °F 75.2 °F 70% 29.74 in 6.2 mi Calm Calm - N/A   Mostly Cloudy
7:30 AM 87.8 °F 99.7 °F 77.0 °F 70% 29.77 in 6.2 mi SW 4.6 mph - N/A   Mostly Cloudy
8:00 AM 87.8 °F 97.6 °F 75.2 °F 66% 29.77 in 6.2 mi SW 6.9 mph - N/A   Mostly Cloudy
8:30 AM 89.6 °F 102.2 °F 77.0 °F 66% 29.77 in 6.2 mi SW 11.5 mph - N/A   Mostly Cloudy
9:00 AM 91.4 °F 105.1 °F 77.0 °F 63% 29.77 in 6.2 mi SW 9.2 mph - N/A   Scattered Clouds
9:30 AM 91.4 °F 105.1 °F 77.0 °F 63% 29.80 in 6.2 mi SW 9.2 mph - N/A   Scattered Clouds
10:00 AM 89.6 °F 102.2 °F 77.0 °F 66% 29.80 in 6.2 mi West 9.2 mph - N/A   Scattered Clouds
10:30 AM 87.8 °F 99.7 °F 77.0 °F 70% 29.80 in 6.2 mi WSW 9.2 mph - N/A   Scattered Clouds
11:00 AM 89.6 °F 99.8 °F 75.2 °F 62% 29.80 in 6.2 mi West 9.2 mph - N/A   Scattered Clouds
11:30 AM 89.6 °F 99.8 °F 75.2 °F 62% 29.77 in 6.2 mi WSW 9.2 mph - N/A   Scattered Clouds
12:00 PM 89.6 °F 102.2 °F 77.0 °F 66% 29.77 in 6.2 mi West 9.2 mph - N/A   Scattered Clouds
12:30 PM 93.2 °F 105.0 °F 75.2 °F 56% 29.77 in 6.2 mi West 9.2 mph - N/A   Scattered Clouds
1:00 PM 91.4 °F 102.5 °F 75.2 °F 59% 29.74 in 6.2 mi WSW 11.5 mph - N/A   Scattered Clouds
1:30 PM 95.0 °F 107.4 °F 75.2 °F 53% 29.74 in 6.2 mi West 11.5 mph - N/A Thunderstorm Scattered Clouds
2:00 PM 95.0 °F 107.4 °F 75.2 °F 53% 29.71 in 6.2 mi WSW 9.2 mph - N/A   Scattered Clouds
2:30 PM 93.2 °F 107.2 °F 77.0 °F 59% 29.71 in 6.2 mi SW 9.2 mph - N/A   Scattered Clouds
3:00 PM 93.2 °F 105.0 °F 75.2 °F 56% 29.71 in 6.2 mi SW 11.5 mph - N/A   Mostly Cloudy
3:30 PM 89.6 °F 108.2 °F 80.6 °F 75% 29.68 in 6.2 mi SW 9.2 mph - N/A   Partly Cloudy
4:00 PM 89.6 °F 102.2 °F 77.0 °F 66% 29.68 in 6.2 mi SSW 8.1 mph - N/A   Mostly Cloudy
4:30 PM 89.6 °F 102.2 °F 77.0 °F 66% 29.68 in 6.2 mi SW 6.9 mph - N/A   Partly Cloudy
5:00 PM 89.6 °F 102.2 °F 77.0 °F 66% 29.68 in 6.2 mi SW 9.2 mph - N/A   Mostly Cloudy
5:30 PM 87.8 °F 99.7 °F 77.0 °F 70% 29.68 in 6.2 mi SW 8.1 mph - N/A   Partly Cloudy
6:00 PM 87.8 °F 99.7 °F 77.0 °F 70% 29.68 in 6.2 mi SW 8.1 mph - N/A   Mostly Cloudy
6:30 PM 87.8 °F 99.7 °F 77.0 °F 70% 29.68 in 6.2 mi SW 8.1 mph - N/A   Partly Cloudy
7:00 PM 86.0 °F 96.9 °F 77.0 °F 74% 29.68 in 6.2 mi SW 6.9 mph - N/A   Mostly Cloudy
7:30 PM 86.0 °F 96.9 °F 77.0 °F 74% 29.68 in 6.2 mi SW 5.8 mph - N/A   Mostly Cloudy
8:00 PM 87.8 °F 99.7 °F 77.0 °F 70% 29.68 in 6.2 mi SW 5.8 mph - N/A   Mostly Cloudy
8:30 PM 86.0 °F 96.9 °F 77.0 °F 74% 29.71 in 6.2 mi SW 5.8 mph - N/A   Mostly Cloudy
9:00 PM 86.0 °F 96.9 °F 77.0 °F 74% 29.71 in 6.2 mi SW 6.9 mph - N/A   Mostly Cloudy
9:30 PM 87.8 °F 102.5 °F 78.8 °F 75% 29.74 in 6.2 mi SW 9.2 mph - N/A   Mostly Cloudy
10:00 PM 87.8 °F 99.7 °F 77.0 °F 70% 29.74 in 6.2 mi SW 9.2 mph - N/A   Mostly Cloudy
10:30 PM 87.8 °F 99.7 °F 77.0 °F 70% 29.74 in 6.2 mi SW 9.2 mph - N/A   Mostly Cloudy
11:00 PM 86.0 °F 96.9 °F 77.0 °F 74% 29.74 in 6.2 mi SW 9.2 mph - N/A   Mostly Cloudy
11:30 PM 86.0 °F 96.9 °F 77.0 °F 74% 29.74 in 6.2 mi SW 6.9 mph - N/A   Mostly Cloudy